User: anonymous   Login
Location: Ammerl�gen
(47.2167°N, 9.6000°E)
Time: 17:18:33
(UTC+00:00)
Language:

NOAA 19 - Orbit

View from above orbital plane
View from above orbital plane
View from above satellite
View from above satellite

Ground track
Ground track

The orbit data is extracted from the following two-line orbital elements,

1 33591U 09005A   21337.21101365  .00000095  00000-0  76356-4 0  9995
2 33591  99.1710   2.0030 0014227  22.7779 337.4020 14.12512197660740
Epoch (UTC): 03 December 2021 05:03:51
Eccentricity: 0.0014227
inclination: 99.1710°
perigee height: 840 km
apogee height: 861 km
right ascension of ascending node: 2.0030°
argument of perigee: 22.7779°
revolutions per day: 14.12512197
mean anomaly at epoch: 337.4020°
orbit number at epoch: 66074

The dashed part of the orbit path shows where the satellite is in the earth's shadow,  

DLR